Location: L�beck
(53.8752°N, 10.6787°E)
Time: 03:49:35
(UTC+01:00)

ISS - Pass Details

Date: 10 January 2018
Orbit: 402 x 407 km, 51.6° (Epoch: 21 January)

Event Time Altitude Azimuth Distance (km) Brightness Sun altitude
Exits shadow 06:31:06 30° 229° (SW) 767 -2.8 -16.7°
Maximum altitude 06:31:47 33° 202° (SSW) 707 -2.7 -16.6°
Drops below altitude 10° 06:34:47 10° 136° (SE) 1,466 -0.1 -16.1°
Sets 06:36:58 0° 127° (SE) 2,325 1.4 -15.8°
